Location: Newark
(49.0000°N, 111.9667°W)
Time: 13:10:29
(UTC+00:00)

OTV 5 (USA 277) - Visible Passes

Search period start: 25 August 2019 00:00
Search period end: 04 September 2019 00:00
Orbit: 305 x 329 km, 54.5° (Epoch: 20 August)

Date Brightness Start Highest point End Pass type
(mag) Time Alt. Az. Time Alt. Az. Time Alt. Az.
25 Aug ? 03:04:26 10° S 03:06:03 15° SE 03:07:39 10° E visible
25 Aug ? 04:37:21 10° WSW 04:38:56 31° WSW 04:38:56 31° WSW visible
26 Aug ? 03:17:55 10° SSW 03:20:23 32° SE 03:22:51 10° ENE visible
26 Aug ? 04:52:06 10° W 04:53:53 30° WNW 04:53:53 30° WNW visible
27 Aug ? 03:32:10 10° SW 03:34:52 75° SSE 03:37:30 10° ENE visible
27 Aug ? 05:06:59 10° WNW 05:08:24 22° NW 05:08:24 22° NW visible
28 Aug ? 03:46:48 10° WSW 03:49:27 53° NNW 03:51:47 12° NE visible
28 Aug ? 05:21:52 10° WNW 05:22:39 15° NW 05:22:39 15° NW visible
29 Aug ? 04:01:37 10° W 04:04:07 33° NNW 04:05:53 16° NE visible
29 Aug ? 05:36:39 10° NW 05:36:45 11° NW 05:36:45 11° NW visible
30 Aug ? 04:16:32 10° WNW 04:18:52 25° N 04:19:52 20° NNE visible
31 Aug ? 02:56:17 10° W 02:58:53 40° NNW 03:01:28 10° NE visible
31 Aug ? 04:31:22 10° WNW 04:33:39 23° N 04:33:47 23° N visible
01 Sep ? 03:11:10 10° WNW 03:13:36 28° NNW 03:16:00 10° NE visible
01 Sep ? 04:46:05 10° NW 04:47:40 22° NNW 04:47:40 22° NNW visible
02 Sep ? 03:26:04 10° WNW 03:28:22 24° N 03:30:39 10° NE visible
02 Sep ? 05:00:39 10° NW 05:01:30 17° NW 05:01:30 17° NW visible
03 Sep ? 03:40:51 10° NW 03:43:08 24° N 03:44:29 17° NE visible
03 Sep ? 05:15:10 10° WNW 05:15:20 11° NW 05:15:20 11° NW visible
